Location: Rainwater Observatory
(33.2833°N, 89.3833°W)
Time: 05:16:25
(UTC-06:00)

Daily predictions for brighter satellites

Satellite Brightness Start Highest point End
(mag) Time Altitude Azimuth Time Altitude Azimuth Time Altitude Azimuth
SJ 16-02 3.7 04:29:04 15° S 04:29:04 15° S 04:29:53 10° S
USA 267 4.3 04:23:16 10° NNE 04:27:03 30° N 04:27:03 30° N
Meteor 1-19 Rocket 4.4 04:30:24 57° NNE 04:31:37 76° E 04:37:27 10° SSE
Cosmos 1697 Rocket 3.1 04:33:30 52° S 04:33:30 52° S 04:37:43 10° SSE
Milstar 3 Cent rocket 4.1 04:34:20 29° SW 04:36:24 33° SSW 04:47:39 10° SE
OAO 2 Rocket 3.8 04:37:58 54° S 04:37:58 54° S 04:42:30 10° SE
Cosmos 1300 Rocket 4.3 04:35:38 10° SSE 04:39:46 49° E 04:43:57 10° NNE
Lacrosse 5 rocket 2.9 04:44:51 31° S 04:44:51 31° S 04:47:22 10° SSE
Timation 2 Rocket 4.0 04:38:13 10° SSW 04:45:04 79° WNW 04:51:59 10° NNE
Aurora 2 Rocket 4.1 04:47:41 22° SSE 04:47:41 22° SSE 04:50:36 10° ESE
USA 116 4.4 04:43:02 10° SSE 04:47:56 67° ENE 04:49:09 47° NNE
RESURS DK-1 2.6 04:49:57 66° ESE 04:49:57 66° ESE 04:53:44 10° SSE
CZ-2C R/B 3.6 04:49:30 10° SSE 04:53:54 81° ENE 04:54:39 61° N
Cosmos 1536 Rocket 3.7 04:53:45 49° NNE 04:54:48 71° E 04:59:09 10° SSE
Cosmos 1092 Rocket 4.5 04:49:49 10° S 04:55:48 59° E 05:01:49 10° NNE
SeaSat 1 4.0 04:54:40 10° N 04:56:29 22° N 04:56:29 22° N
COSMO-SKYMED 1 3.4 04:56:04 10° SSE 05:00:13 48° ENE 05:03:42 14° N
USA 234 4.1 04:54:48 10° ESE 05:00:53 42° NE 05:05:11 19° NNW
Meteor 1-23 Rocket 4.3 05:04:32 10° N 05:10:06 73° E 05:15:37 10° SSE
NOAA 6 3.9 05:07:22 10° N 05:12:31 79° WNW 05:17:38 10° SSW
CZ-2C R/B 3.2 05:08:00 10° NNE 05:12:40 50° E 05:17:10 10° S
Okean-O 2.5 05:08:17 10° N 05:12:44 84° WNW 05:17:10 10° SSW
Cosmos 1980 Rocket 2.2 05:11:00 38° NW 05:12:57 58° WSW 05:18:28 10° S
Cosmos 2279 Rocket 4.3 05:11:50 37° WNW 05:12:59 40° W 05:18:41 10° SSW
CZ-4C R/B 2.4 05:13:19 41° WNW 05:13:32 41° NW 05:18:55 10° NNE
Okean 1 Rocket 3.0 05:11:12 10° S 05:15:33 82° E 05:19:57 10° N
Cosmos 1975 4.4 05:20:22 10° SSE 05:24:00 36° E 05:27:40 10° NNE
Cosmos 773 Rocket 4.1 05:19:07 10° SW 05:24:04 49° WNW 05:29:04 10° N
Okean 2 4.1 05:21:11 10° N 05:25:13 53° E 05:29:13 10° SSE
Cosmos 1515 4.0 05:22:10 10° N 05:25:57 67° E 05:29:45 10° SSE
SKYMED 3 4.4 05:25:57 10° S 05:30:15 71° W 05:34:08 13° NNW
SL-16 Debris 4.5 05:30:40 18° SW 05:32:34 30° S 05:34:43 10° ESE
Cosmos 1680 Rocket 3.6 05:29:34 10° S 05:34:44 77° ESE 05:39:57 10° NNE
IDEFIX/ARIANE 42P 2.5 05:33:48 10° N 05:38:55 60° WNW 05:44:03 10° SSW
Meteor 2-4 Rocket 4.3 05:39:09 17° NW 05:42:32 33° W 05:47:29 10° SSW
ATLAS CENTAUR R/B 3.3 05:40:47 10° S 05:44:03 29° ESE 05:47:16 10° NE
OAO 3 Copernicus 4.2 05:40:49 22° W 05:44:08 79° N 05:49:10 10° E
COSMOS 2441 4.3 05:42:33 10° NNE 05:47:24 89° WNW 05:52:11 10° SSW
SKYMED 2 4.0 05:44:10 10° S 05:48:16 42° W 05:52:20 10° NNW
MSX 3.8 05:44:36 10° N 05:50:21 80° WNW 05:56:04 10° SSW
SL-16 R/B 2.2 05:47:43 10° NNW 05:53:24 83° WSW 05:59:04 10° SSE
Thor Agena Rocket 4.0 05:52:50 10° SSE 05:57:47 62° ENE 06:02:47 10° N
Cosmos 2322 Rocket 2.2 05:53:12 10° NNW 05:58:52 76° WSW 06:04:32 10° SSE
EO 1 Del DPAF 4.1 05:57:26 10° SSW 06:00:49 30° W 06:04:14 10° NW
Cosmos 1743 3.0 05:58:14 10° S 06:02:01 71° E 06:05:49 10° N
BREEZE-M DEB (TANK) 3.4 06:01:22 18° NW 06:02:10 20° NNW 06:04:44 10° NNE
SMAP 3.8 05:57:52 10° NNE 06:02:27 57° E 06:07:01 10° S
CSL-04 Rocket 4.2 05:59:02 10° NNE 06:04:35 68° ESE 06:10:02 10° S
Meteor 1-4 Rocket 3.8 06:02:38 10° SW 06:05:38 22° WNW 06:08:39 10° NNW
SWAS 4.4 06:02:02 10° SSW 06:06:19 80° WNW 06:10:39 10° NNE
Cosmos 923 Rocket 4.5 06:01:38 10° SW 06:06:29 38° WNW 06:11:20 10° N
Cosmos 1484 Rocket 2.8 06:03:50 10° NNE 06:07:43 84° E 06:11:30 10° S
Cosmos 2285 Rocket 4.1 06:02:25 10° SSW 06:08:34 54° WNW 06:14:44 10° N
Cosmos 1455 Rocket 3.4 06:07:32 10° S 06:11:57 74° E 06:16:25 10° N
Cosmos 1544 Rocket 3.6 06:11:46 10° S 06:16:13 89° W 06:20:41 10° N
APEX 4.1 06:17:08 10° WSW 06:19:48 23° WNW 06:22:55 10° N
Okean 1-7 Rocket 4.1 06:17:57 10° NNW 06:22:13 41° W 06:26:29 10° SSW
Cosmos 2112 Rocket 4.4 06:17:59 10° SW 06:22:51 41° WNW 06:27:45 10° N
Cosmos 1833 4.3 06:17:55 10° SW 06:23:18 50° WNW 06:28:43 10° N
Cosmos 1340 Rocket 4.2 06:22:43 10° N 06:26:29 42° E 06:30:16 10° SSE
Cosmos 1025 Rocket 4.1 06:24:29 10° NW 06:27:56 24° W 06:31:21 10° SW
